Saginaw, MI

1:32 AM EDT on May 29, 2017 (GMT -0400)
MBS International

Weather History for KMBS - December, 2012

Change the Weather History Date:

Monday, December 10, 2012

  Actual Average Record
Temperature  
Mean Temperature 30 °F 29 °F  
Max Temperature 33 °F 35 °F 58 °F (2015)
Min Temperature 26 °F 23 °F 2 °F (2013)
Degree Days  
Heating Degree Days 35    
Month to date heating degree days  
Since 1 July heating degree days  
Cooling Degree Days 0    
Month to date cooling degree days  
Year to date cooling degree days  
Moisture  
Dew Point 26 °F    
Average Humidity 79    
Maximum Humidity 96    
Minimum Humidity 64    
Precipitation  
Precipitation 0.00 in 0.06 in 0.27 in (2003)
Month to date precipitation 0.67  
Year to date precipitation 30.35  
Snow  
Snow 0.00 in - - ()
Month to date snowfall  
Since 1 July snowfall  
Snow Depth -    
Sea Level Pressure  
Sea Level Pressure 29.70 in    
Wind  
Wind Speed 6 mph (WNW)    
Max Wind Speed 14 mph    
Max Gust Speed -    
Visibility 7 miles    
Events      
T = Trace of Precipitation, MM = Missing Value Source: NWS Daily Summary

Daily Weather History Graph

Daily Weather History Graph

Search for Another Location

Airport or City:

Trip Planner

Search our weather history database for the weather conditions in past years. The results will help you decide how hot, cold, wet, or windy it might be!

Date:

Astronomy

Dec. 10, 2012 Rise Set
Actual Time 7:58 AM EST 4:59 PM EST
Civil Twilight 7:26 AM EST 5:32 PM EST
Nautical Twilight 6:50 AM EST 6:08 PM EST
Astronomical Twilight 6:15 AM EST 6:43 PM EST
Moon 4:37 AM EST (12/10) 2:51 PM EST (12/10)
Length of Visible Light 10h 06m
Length of Day
9h 00m
Waning Crescent, 10% of the Moon is Illuminated
Dec 10
Waning Crescent
Dec 13
New
Dec 20
First Quarter
Dec 28
Full
Jan 4
Last Quarter

Hourly Weather History & Observations

Time (EST) Temp. Windchill Dew Point Humidity Pressure Visibility Wind Dir Wind Speed Gust Speed Precip Events Conditions
12:01 AM 33.8 °F 30.8 °F 30.2 °F 87% 29.66 in 5.0 mi ENE 3.5 mph - N/A   Overcast
12:28 AM 33.8 °F - 30.2 °F 87% 29.65 in 4.0 mi Calm Calm - N/A   Overcast
12:53 AM 33.1 °F - 30.9 °F 92% 29.68 in 4.0 mi Calm Calm - N/A   Overcast
1:42 AM 33.8 °F - 30.2 °F 87% 29.63 in 2.0 mi Calm Calm - N/A   Overcast
1:50 AM 33.8 °F - 30.2 °F 87% 29.62 in 1.2 mi Calm Calm - N/A   Overcast
1:53 AM 33.1 °F - 30.9 °F 92% 29.64 in 1.0 mi Calm Calm - N/A   Mist
2:05 AM 33.8 °F 30.8 °F 30.2 °F 87% 29.62 in 0.8 mi SW 3.5 mph - N/A   Mist
2:14 AM 33.8 °F 30.8 °F 30.2 °F 87% 29.62 in 0.8 mi WSW 3.5 mph - N/A   Mist
2:53 AM 33.1 °F 27.7 °F 30.9 °F 92% 29.64 in 0.8 mi WSW 5.8 mph - N/A   Mist
3:53 AM 32.0 °F 27.5 °F 30.9 °F 96% 29.62 in 1.0 mi WSW 4.6 mph - N/A   Mist
4:34 AM 32.0 °F 24.8 °F 30.2 °F 93% 29.60 in 3.0 mi West 8.1 mph - N/A   Overcast
4:53 AM 32.0 °F 24.2 °F 30.0 °F 92% 29.63 in 7.0 mi West 9.2 mph - N/A   Overcast
5:53 AM 32.0 °F 26.4 °F 30.0 °F 92% 29.63 in 6.0 mi WSW 5.8 mph - 0.00 in   Overcast
6:53 AM 32.0 °F 26.4 °F 30.0 °F 92% 29.63 in 9.0 mi WSW 5.8 mph - N/A   Overcast
7:53 AM 32.0 °F 24.8 °F 28.9 °F 88% 29.65 in 9.0 mi West 8.1 mph - N/A   Overcast
8:53 AM 32.0 °F 24.8 °F 28.9 °F 88% 29.67 in 10.0 mi West 8.1 mph - N/A   Overcast
9:14 AM 32.0 °F 24.8 °F 30.2 °F 93% 29.65 in 10.0 mi West 8.1 mph - N/A   Overcast
9:53 AM 32.0 °F 24.2 °F 28.0 °F 85% 29.69 in 10.0 mi West 9.2 mph - N/A   Overcast
10:53 AM 32.0 °F 23.6 °F 27.0 °F 82% 29.70 in 10.0 mi WNW 10.4 mph - N/A   Overcast
11:16 AM 32.0 °F 24.8 °F 26.6 °F 80% 29.68 in 10.0 mi NW 8.1 mph - N/A   Overcast
11:53 AM 32.0 °F 22.5 °F 26.1 °F 79% 29.71 in 10.0 mi NW 12.7 mph - N/A   Overcast
12:53 PM 33.1 °F 24.9 °F 25.0 °F 72% 29.71 in 10.0 mi WNW 10.4 mph - N/A   Mostly Cloudy
1:53 PM 33.1 °F 24.9 °F 24.1 °F 70% 29.71 in 10.0 mi WNW 10.4 mph - N/A   Overcast
2:44 PM 33.8 °F 25.8 °F 24.8 °F 70% 29.69 in 10.0 mi NW 10.4 mph - N/A   Overcast
2:53 PM 33.1 °F 24.9 °F 24.1 °F 70% 29.71 in 10.0 mi NNW 10.4 mph - N/A   Overcast
3:02 PM 33.8 °F 25.8 °F 24.8 °F 70% 29.69 in 10.0 mi NW 10.4 mph - N/A   Overcast
3:25 PM 33.8 °F 25.8 °F 24.8 °F 70% 29.69 in 10.0 mi NW 10.4 mph - N/A   Overcast
3:53 PM 33.1 °F 23.9 °F 23.0 °F 66% 29.73 in 10.0 mi NW 12.7 mph - N/A   Overcast
4:53 PM 32.0 °F 22.5 °F 21.9 °F 66% 29.75 in 10.0 mi NW 12.7 mph - N/A   Overcast
5:16 PM 32.0 °F 23.0 °F 21.2 °F 64% 29.74 in 10.0 mi NW 11.5 mph - N/A   Overcast
5:53 PM 30.9 °F 21.7 °F 19.9 °F 64% 29.79 in 10.0 mi WNW 11.5 mph - N/A   Overcast
6:53 PM 30.9 °F 22.8 °F 21.0 °F 67% 29.82 in 10.0 mi NNW 9.2 mph - N/A   Overcast
7:53 PM 28.9 °F 18.2 °F 19.0 °F 67% 29.84 in 10.0 mi NW 13.8 mph - N/A   Overcast
8:53 PM 28.0 °F 18.1 °F 18.0 °F 66% 29.85 in 10.0 mi NNW 11.5 mph - N/A   Overcast
9:53 PM 27.0 °F 18.7 °F 17.1 °F 66% 29.89 in 10.0 mi NW 8.1 mph - N/A   Overcast
10:53 PM 27.0 °F 16.7 °F 17.1 °F 66% 29.91 in 10.0 mi NNE 11.5 mph - N/A   Overcast
11:53 PM 26.1 °F 16.2 °F 17.1 °F 69% 29.92 in 10.0 mi NNE 10.4 mph - N/A   Overcast